Location: Ash Swamp
(41.5170°N, 74.6157°W)
Time: 02:43:44
(UTC+00:00)

Meteor 1-5 Rocket - Pass Details

Date: 14 July 2020
Orbit: 789 x 915 km, 81.2° (Epoch: 14 August)

Event Time Altitude Azimuth Distance (km) Brightness Sun altitude
Exits shadow 07:02:01 43° 199° (SSW) 1,196 4.5 -21.3°
Maximum altitude 07:03:58 80° 279° (W) 889 4.2 -21.1°
Drops below altitude 10° 07:09:50 10° 8° (N) 2,568 7.7 -20.5°
Sets 07:12:21 0° 9° (N) 3,526 8.6 -20.3°
